This demonstration page uses our WeatherBlox Daily Observations layout. Learn more.

Left ArrowRight Arrow

Hourly Observations for November 25, 2016

Temp ( °F °C ) Dew Point ( °F °C ) Humidity (%) Winds ( mph kmh ) Pressure ( in mb ) Visibility ( mi km ) Precip ( " mm )
12:53 am 00:53 Clear 51 10.6 48 8.9 89 89 Calm 30.20 1023 10 16 0.00 0.00
1:53 am 01:53 Mostly Cloudy with Mist and Fog 49 9.4 47 8.3 93 93 Calm 30.20 1023 5 8 0.00 0.00
2:53 am 02:53 Mostly Clear 48 8.9 46 7.8 93 93 Calm 30.20 1023 9 14 0.00 0.00
3:53 am 03:53 Mostly Cloudy 49 9.4 46 7.8 90 90 Calm 30.20 1023 10 16 0.00 0.00
4:53 am 04:53 Mostly Clear 49 9.4 46 7.8 90 90 Calm 30.20 1023 9 14 0.00 0.00
5:53 am 05:53 Clear 47 8.3 44 6.7 90 90 Calm 30.22 1023 7 11 0.00 0.00
6:53 am 06:53 Clear 47 8.3 43 6.1 86 86 Calm 30.24 1024 10 16 0.00 0.00
7:53 am 07:53 Sunny 48 8.9 45 7.2 89 89 Calm 30.25 1024 9 14 0.00 0.00
8:53 am 08:53 Sunny 52 11.1 48 8.9 86 86 Calm 30.25 1024 10 16 0.00 0.00
9:53 am 09:53 Sunny 60 15.6 50 10 70 70 Calm 30.26 1025 10 16 0.00 0.00
10:53 am 10:53 Sunny 66 18.9 45 7.2 47 47 WNW 10 17 30.25 1024 10 16 0.00 0.00
11:53 am 11:53 Sunny 68 20 46 7.8 45 45 W 9 15 30.23 1024 10 16 0.00 0.00
12:53 pm 12:53 Sunny 69 20.6 44 6.7 41 41 undefined N/A 30.21 1023 10 16 0.00 0.00
1:53 pm 13:53 Sunny 70 21.1 43 6.1 38 38 NW 7 11 30.18 1022 7 11 0.00 0.00
2:53 pm 14:53 Sunny 71 21.7 41 5 34 34 WNW 9 15 30.17 1022 10 16 0.00 0.00
3:53 pm 15:53 Sunny 70 21.1 43 6.1 38 38 NW 10 17 30.17 1022 10 16 0.00 0.00
4:53 pm 16:53 Sunny 65 18.3 43 6.1 45 45 NW 9 15 30.18 1022 10 16 0.00 0.00
5:53 pm 17:53 Clear 61 16.1 43 6.1 52 52 NW 7 11 30.19 1022 10 16 0.00 0.00
6:53 pm 18:53 Clear 58 14.4 43 6.1 58 58 Calm 30.21 1023 10 16 0.00 0.00
7:53 pm 19:53 Clear 56 13.3 44 6.7 65 65 Calm 30.23 1024 10 16 0.00 0.00
8:53 pm 20:53 Clear 54 12.2 44 6.7 69 69 Calm 30.22 1024 10 16 0.00 0.00
9:53 pm 21:53 Clear 53 11.7 45 7.2 74 74 Calm 30.23 1024 10 16 0.00 0.00
10:53 pm 22:53 Clear 52 11.1 43 6.1 72 72 N 5 7 30.23 1024 10 16 0.00 0.00
11:53 pm 23:53 Clear 50 10 39 4 67 67 Calm 30.24 1024 10 16 0.00 0.00

Powered by AerisWeather